Погода в Панаевске

Россия / Ямало-Ненецкий автономный округ     66°44′41″N   70°05′10″E
темп.,
°C
ветер,
м/с
пор.,
м/с
влажн.,
%
обл.,
%
осадки,
мм/ч
давл.,
гПа
погр.,
м
17 августа, ср
ср1723:00+6ссз9158098 0.0 1017459
02:00+7ссз91479100 0.1 1017563
05:00+7ссз91481100 0.1 1017580
08:00+8ссз101573100 0.0 1017838
11:00+9ссз111663100 0.0 1017832
14:00+9ссз11176699 0.9 1018734
17:00+9с111667100 1.2 1019659
20:00+10с10157195 0.1 1020526
18 августа, чт
чт1823:00+9с91475100 0.1 1021434
02:00+8с8137698 0.0 1022350
05:00+8с71178100 0.0 1023298
08:00+9с6973100 0.0 1024313
11:00+11с6761100 0.0 1025433
14:00+13с5656100 0.0 1025597
17:00+13с5655100 0.0 1025664
20:00+11ссз456686 0.0 102564
19 августа, пт
пт1923:00+10с3464100 0.0 102560
02:00+9юв1175100 0.1 102410
05:00+9ююз2270100 0.1 102318
08:00+11юз346188 0.0 1022139
11:00+13ююз4659100 0.0 1021272
14:00+15юз465897 0.0 1019171
17:00+16юз4862100 0.0 1017190
20:00+14ссз469199 0.4 101681
20 августа, сб
сб2023:00+12с91493100 1.3 1016384
02:00+8ссз13198971 0.1 1018577
05:00+8ссз101686100 0.2 1019742
08:00+8ссз11177841 0.1 1020701
11:00+11с1216560 0.1 1021712
14:00+13ссз1216472 0.0 1021760
17:00+12ссз1115535 0.0 1022700
20:00+10ссз10176424 0.0 1023393
21 августа, вс
вс2123:00+7ссз814745 0.0 1025302
02:00+6с713825 0.0 1025276
05:00+5с613820 0.0 1027285
08:00+8с710590 0.0 1028361
11:00+12с68457 0.0 1028548
14:00+13с5641100 0.0 1028671
17:00+14с4544100 0.0 1028588
20:00+10св1159100 0.0 102911